Orbital Elements at Epoch 2459200.5 (2020-Dec-17.0) TDB
Reference: JPL 21 (heliocentric ecliptic J2000)
Element | Value | Uncertainty (1-sigma) | Units |
e | .2339066990814574 | 4.1019e-08 | |
a | 2.605051670137157 | 9.7375e-09 | au |
q | 1.995712633038737 | 1.0762e-07 | au |
i | 3.572767316377174 | 4.6679e-06 | deg |
node | 172.8504484777977 | 5.1716e-05 | deg |
peri | 154.7364479901261 | 5.2469e-05 | deg |
M | 111.5308413018206 | 7.0128e-06 | deg |
tp | 2458724.709882753924 (2019-Aug-29.20988275) | 2.9913e-05 | TDB |
period | 1535.758541846409 4.20 | 8.6109e-06 2.358e-08 | d yr |
n | .2344118493830285 | 1.3143e-09 | deg/d |
Q | 3.214390707235577 | 1.2015e-08 | au |
|
| | Orbit Determination Parameters
Additional Information
|